Weather observations for the past three days for
Salt Lake City, Salt Lake City International Airport
Imperial (Metric)
Date Time (mdt) Wind (mph) Vis. (mi.) Weather Sky Cond. Temperature (ºF) Relative Humidity Wind Chill (°F) Heat Index (°F) Pressure Precipitation (in)
Air Dwpt 6 hour altimeter (in) sea level (mb) 1 hr 3 hr 6 hr
Max. Min.
23 23:54 S 13 G 22 10.00 Partly Cloudy SCT120 SCT180 87.1 42.1 100 84 21% 84 29.89 1004.9
23 22:54 S 8 10.00 Partly Cloudy FEW120 SCT180 84.9 43 23% 82 29.89 1004.9
23 21:54 S 9 10.00 Partly Cloudy FEW120 SCT180 86 42.1 21% 83 29.88 1004.7
23 20:54 E 9 10.00 Partly Cloudy FEW120 SCT180 91.9 42.1 18% 88 29.87 1004.4
23 19:54 NE 7 10.00 Partly Cloudy FEW130 SCT180 97 37 12% 92 29.87 1004.4
23 18:54 N 9 10.00 A Few Clouds FEW130 98.1 35.1 11% 93 29.88 1004.9
23 17:54 NE 14 G 17 10.00 Partly Cloudy SCT140 99 33.1 100.9 93.9 10% 94 29.9 1005.4
23 16:54 N 9 10.00 Partly Cloudy SCT140 100 36 11% 95 29.91 1005.8
23 15:54 NW 14 G 18 10.00 Partly Cloudy FEW130 SCT160 100 37 11% 95 29.94 1006.6
23 14:54 Vrbl 6 10.00 Partly Cloudy FEW120 SCT150 97 39 13% 92 29.96 1007.5
23 13:54 S 13 10.00 Partly Cloudy FEW120 SCT150 98.1 39.9 13% 93 29.98 1008.3
23 12:54 S 15 G 26 10.00 A Few Clouds FEW110 96.1 42.1 15% 92 30 1009.0
23 11:54 S 18 G 28 10.00 A Few Clouds FEW110 93.9 42.1 93.9 75 17% 90 30.02 1009.5
23 10:54 S 21 G 30 10.00 A Few Clouds and Breezy FEW120 91.9 41 17% 88 30.02 1009.6
23 09:54 S 22 G 35 10.00 A Few Clouds and Breezy FEW140 90 41 18% 86 30.02 1009.7
23 08:54 S 16 G 25 10.00 Fair CLR 86 43 22% 83 30.02 1009.6
23 07:54 SE 13 G 22 10.00 Fair CLR 80.1 44.1 28% 79 30.01 1009.4
23 06:54 SE 13 10.00 Fair CLR 78.1 44.1 30% 78 30 1009.0
23 05:54 SE 13 10.00 Fair CLR 77 41 81 75.9 28% 78 29.99 1008.6
23 04:54 SE 9 10.00 Fair CLR 77 42.1 29% 78 29.97 1008.1
23 03:54 SE 10 10.00 A Few Clouds FEW140 78.1 39.9 26% 78 29.96 1007.6
23 02:54 SE 13 10.00 Fair CLR 78.1 39.9 26% 78 29.97 1007.8
23 01:54 S 12 10.00 A Few Clouds FEW120 79 43 28% 78 29.97 1008.2
23 00:54 S 9 10.00 A Few Clouds FEW120 79 42.1 27% 78 29.97 1008.3
22 23:54 SE 9 10.00 Fair CLR 81 43 97 80.1 26% 80 29.97 1008.4
22 22:54 S 8 10.00 Fair CLR 82 45 27% 80 29.97 1008.4
22 21:54 SE 7 10.00 Fair CLR 84.9 46 26% 82 29.96 1007.9
22 20:54 E 5 10.00 Fair CLR 90 45 21% 86 29.94 1007.4
22 19:54 E 8 10.00 A Few Clouds FEW110 93.9 41 16% 90 29.94 1007.5
22 18:54 NE 9 10.00 A Few Clouds FEW120 95 41 15% 91 29.95 1007.8
22 17:54 E 7 10.00 A Few Clouds FEW120 96.1 41 97 89.1 15% 92 29.96 1008.3
22 16:54 Vrbl 3 10.00 A Few Clouds FEW100 FEW170 96.1 43 16% 92 29.98 1008.7
22 15:54 N 7 10.00 Partly Cloudy FEW100 SCT160 96.1 43 16% 92 29.99 1009.2
22 14:54 N 8 G 16 10.00 Partly Cloudy FEW100 SCT150 95 43 17% 91 30.01 1009.7
22 13:54 Vrbl 3 10.00 A Few Clouds FEW090 FEW150 91.9 42.1 18% 88 30.02 1010.3
22 12:54 Vrbl 5 10.00 A Few Clouds FEW090 90 44.1 20% 86 30.04 1010.8
22 11:54 SW 14 G 21 10.00 A Few Clouds FEW090 FEW170 89.1 44.1 89.1 66.9 21% 86 30.04 1011.1
22 10:54 SE 10 10.00 A Few Clouds FEW160 84 48.9 30% 82 30.04 1011.3
22 09:54 S 9 10.00 Partly Cloudy SCT160 82 48.9 32% 81 30.05 1011.4
22 08:54 SE 10 10.00 Partly Cloudy SCT150 79 48 34% 79 30.03 1010.8
22 07:54 S 8 10.00 Partly Cloudy FEW150 SCT180 73.9 48 40% 30.03 1010.9
22 06:54 SE 8 10.00 A Few Clouds FEW180 70 46.9 44% 30.02 1010.6
22 05:54 S 12 10.00 A Few Clouds FEW170 FEW190 66.9 48 75.9 66.9 51% 30.02 1010.6
22 04:54 SE 8 10.00 Fair CLR 69.1 46.9 45% 30 1009.7
22 03:54 S 8 10.00 Partly Cloudy FEW140 SCT190 71.1 46 41% 30 1009.9
22 02:54 S 12 10.00 A Few Clouds FEW150 73 46 38% 29.99 1009.9
22 01:54 S 10 10.00 A Few Clouds FEW140 73.9 46.9 38% 29.99 1010.4
22 00:54 SE 13 10.00 A Few Clouds FEW140 75 46.9 37% 77 29.99 1009.2
21 23:54 SE 9 10.00 A Few Clouds FEW180 73.9 48 89.1 73.9 40% 29.97 1008.7
21 22:54 SE 8 10.00 A Few Clouds FEW180 75 46.9 37% 77 29.95 1008.4
21 21:54 SE 7 10.00 A Few Clouds FEW180 78.1 46.9 33% 78 29.94 1007.6
21 20:54 N 3 10.00 A Few Clouds FEW150 84 42.1 23% 81 29.92 1006.7
21 19:54 N 7 10.00 A Few Clouds FEW150 87.1 42.1 21% 84 29.9 1006.3
21 18:54 NE 8 10.00 A Few Clouds FEW100 FEW160 89.1 45 22% 86 29.89 1005.7
21 17:54 N 8 10.00 A Few Clouds FEW085 FEW130 89.1 46 90 63 23% 86 29.89 1006.0 0.31
21 16:54 Vrbl 5 10.00 A Few Clouds FEW085 FEW130 90 46 22% 87 29.89 1006.0
21 15:54 Vrbl 3 10.00 Partly Cloudy FEW085 FEW120 SCT180 87.1 46 24% 84 29.9 1006.6
21 14:54 Calm 10.00 Partly Cloudy FEW085 FEW130 SCT250 81 53.1 38% 80 29.92 1007.7 0.31
21 13:54 NE 8 10.00 Thunderstorm SCT029CB BKN085 BKN250 69.1 55.9 63% 29.95 1009.4 0.31
21 12:54 SE 7 10.00 Mostly Cloudy FEW085CB BKN140 BKN250 88 48 25% 85 29.91 1006.7
21 11:54 NW 7 10.00 Mostly Cloudy FEW090 SCT150 BKN230 86 48.9 86 71.1 28% 83 29.94 1007.8
21 10:54 NE 8 10.00 Mostly Cloudy FEW100 BKN150 BKN230 82 46.9 29% 80 29.94 1008.2
21 09:54 Vrbl 6 10.00 Mostly Cloudy FEW120 BKN170 BKN230 82 50 33% 81 29.94 1008.1
21 08:54 S 9 10.00 Mostly Cloudy SCT120 BKN220 79 48 34% 79 29.93 1007.8
21 07:54 S 9 10.00 Mostly Cloudy BKN120 BKN220 75 46 36% 77 29.93 1007.3
21 06:54 SE 10 10.00 Mostly Cloudy BKN140 77 46 33% 78 29.92 1006.8
21 05:54 S 7 10.00 Mostly Cloudy BKN150 71.1 39.9 72 66 32% 29.9 1006.4
21 04:54 SE 9 10.00 Mostly Cloudy BKN150 71.1 37.9 30% 29.9 1006.3
21 03:54 SE 5 10.00 Mostly Cloudy BKN150 68 39.9 36% 29.89 1006.3
21 02:54 S 6 10.00 A Few Clouds FEW150 66.9 41 39% 29.89 1006.1
21 01:54 Calm 10.00 Partly Cloudy FEW150 SCT200 69.1 37 31% 29.89 1006.5
21 00:54 Calm 10.00 Partly Cloudy FEW150 SCT200 72 39 30% 29.9 1006.7
Date Time (mdt) Wind (mph) Vis. (mi.) Weather Sky Cond. Air Dwpt Max. Min. Relative Humidity Wind Chill (°F) Heat Index (°F) altimeter (in) sea level (mb) 1 hr 3 hr 6 hr
6 hour
Temperature (ºF) Pressure Precipitation (in)